sat.trackr.live / text

‹ back to catalog

STARLINK-32786

NORAD 62528 · 2025-004T

PAYLOAD ACTIVE UNKNOWN

§ Identity

Operator
Country
US
Launch date
2025-01-08
Launch site
AFETR
Launch vehicle
Mass (kg)
RCS (m²)

Purposes: comms

External: N2YO · Heavens-Above · Gunter

§ Orbital elements

Epoch: 2026-09-21T04:43:03.651456Z

Period
94.26 min
Inclination
43.0003°
Eccentricity
0.0001519
Mean motion
15.27613102 rev/d
Perigee alt
481.9 km
Apogee alt
484.0 km
Semi-major
6,861.1 km
B*
6.8665e-4
RAAN
195.3408°
Arg perigee
251.3525°
Mean anomaly
108.7162°
Rev number
9,541

§ Raw data

STARLINK-327861 62528U 25004T   26264.19657004  .00018700  00000+0  68665-3 0  99952 62528  43.0003 195.3408 0001519 251.3525 108.7162 15.27613102 95416

JSON: /api/v1/satellites/62528 · /tle

For live sub-satellite position, see the globe view (requires WebGL).

§ Visibility from observer

Set your observer location to see the next 7 days of passes ≥ 10°. The values pass through the URL so the page stays shareable.

No JS? Fill the form by hand. The geolocation button needs JavaScript.